Year,Month,Day,Hour,Minute,Value (Times are PST for temperature in C)
2010,08,20,00,00,12.40
2010,08,20,00,01,12.30
2010,08,20,00,02,12.30
2010,08,20,00,03,12.30
2010,08,20,00,04,12.20
2010,08,20,00,05,12.20
2010,08,20,00,06,12.20
2010,08,20,00,07,12.20
2010,08,20,00,08,12.10
2010,08,20,00,09,12.10
2010,08,20,00,10,12.10
2010,08,20,00,11,12.10
2010,08,20,00,12,12.10
2010,08,20,00,13,12.10
2010,08,20,00,14,12.10
2010,08,20,00,15,12.10
2010,08,20,00,16,12.00
2010,08,20,00,17,12.00
2010,08,20,00,18,11.90
2010,08,20,00,19,11.90
2010,08,20,00,20,11.80
2010,08,20,00,21,11.70
2010,08,20,00,22,11.70
2010,08,20,00,23,11.60
2010,08,20,00,24,11.60
2010,08,20,00,25,11.60
2010,08,20,00,26,11.70
2010,08,20,00,27,11.70
2010,08,20,00,28,11.70
2010,08,20,00,29,11.70
2010,08,20,00,30,11.70
2010,08,20,00,31,11.70
2010,08,20,00,32,11.60
2010,08,20,00,33,11.70
2010,08,20,00,34,11.70
2010,08,20,00,35,11.70
2010,08,20,00,36,11.70
2010,08,20,00,37,11.70
2010,08,20,00,38,11.60
2010,08,20,00,39,11.60
2010,08,20,00,40,11.60
2010,08,20,00,41,11.60
2010,08,20,00,42,11.50
2010,08,20,00,43,11.50
2010,08,20,00,44,11.50
2010,08,20,00,45,11.50
2010,08,20,00,46,11.50
2010,08,20,00,47,11.50
2010,08,20,00,48,11.50
2010,08,20,00,49,11.50
2010,08,20,00,50,11.50
2010,08,20,00,51,11.40
2010,08,20,00,52,11.40
2010,08,20,00,53,11.40
2010,08,20,00,54,11.40
2010,08,20,00,55,11.30
2010,08,20,00,56,11.30
2010,08,20,00,57,11.30
2010,08,20,00,58,11.30
2010,08,20,00,59,11.30
2010,08,20,01,00,11.20
2010,08,20,01,01,11.20
2010,08,20,01,02,11.20
2010,08,20,01,03,11.20
2010,08,20,01,04,11.20
2010,08,20,01,05,11.10
2010,08,20,01,06,11.10
2010,08,20,01,07,11.10
2010,08,20,01,08,11.00
2010,08,20,01,09,11.00
2010,08,20,01,10,10.90
2010,08,20,01,11,10.90
2010,08,20,01,12,10.80
2010,08,20,01,13,10.80
2010,08,20,01,14,10.70
2010,08,20,01,15,10.70
2010,08,20,01,16,10.60
2010,08,20,01,17,10.60
2010,08,20,01,18,10.50
2010,08,20,01,19,10.50
2010,08,20,01,20,10.50
2010,08,20,01,21,10.50
2010,08,20,01,22,10.40
2010,08,20,01,23,10.40
2010,08,20,01,24,10.40
2010,08,20,01,25,10.40
2010,08,20,01,26,10.40
2010,08,20,01,27,10.40
2010,08,20,01,28,10.40
2010,08,20,01,29,10.40
2010,08,20,01,30,10.30
2010,08,20,01,31,10.30
2010,08,20,01,32,10.30
2010,08,20,01,33,10.30
2010,08,20,01,34,10.20
2010,08,20,01,35,10.30
2010,08,20,01,36,10.30
2010,08,20,01,37,10.40
2010,08,20,01,38,10.50
2010,08,20,01,39,10.60
2010,08,20,01,40,10.60
2010,08,20,01,41,10.60
2010,08,20,01,42,10.60
2010,08,20,01,43,10.60
2010,08,20,01,44,10.50
2010,08,20,01,45,10.50
2010,08,20,01,46,10.40
2010,08,20,01,47,10.40
2010,08,20,01,48,10.40
2010,08,20,01,49,10.30
2010,08,20,01,50,10.30
2010,08,20,01,51,10.20
2010,08,20,01,52,10.20
2010,08,20,01,53,10.10
2010,08,20,01,54,10.10
2010,08,20,01,55,10.00
2010,08,20,01,56,10.00
2010,08,20,01,57,9.90
2010,08,20,01,58,9.90
2010,08,20,01,59,9.80
2010,08,20,02,00,9.80
2010,08,20,02,01,9.80
2010,08,20,02,02,9.70
2010,08,20,02,03,9.70
2010,08,20,02,04,9.70
2010,08,20,02,05,9.70
2010,08,20,02,06,9.70
2010,08,20,02,07,9.60
2010,08,20,02,08,9.60
2010,08,20,02,09,9.60
2010,08,20,02,10,9.50
2010,08,20,02,11,9.40
2010,08,20,02,12,9.40
2010,08,20,02,13,9.40
2010,08,20,02,14,9.30
2010,08,20,02,15,9.30
2010,08,20,02,16,9.30
2010,08,20,02,17,9.30
2010,08,20,02,18,9.30
2010,08,20,02,19,9.30
2010,08,20,02,20,9.30
2010,08,20,02,21,9.30
2010,08,20,02,22,9.30
2010,08,20,02,23,9.30
2010,08,20,02,24,9.30
2010,08,20,02,25,9.30
2010,08,20,02,26,9.40
2010,08,20,02,27,9.40
2010,08,20,02,28,9.40
2010,08,20,02,29,9.40
2010,08,20,02,30,9.40
2010,08,20,02,31,9.40
2010,08,20,02,32,9.40
2010,08,20,02,33,9.40
2010,08,20,02,34,9.40
2010,08,20,02,35,9.30
2010,08,20,02,36,9.30
2010,08,20,02,37,9.30
2010,08,20,02,38,9.30
2010,08,20,02,39,9.20
2010,08,20,02,40,9.20
2010,08,20,02,41,9.20
2010,08,20,02,42,9.20
2010,08,20,02,43,9.20
2010,08,20,02,44,9.10
2010,08,20,02,45,9.10
2010,08,20,02,46,9.10
2010,08,20,02,47,9.10
2010,08,20,02,48,9.10
2010,08,20,02,49,9.10
2010,08,20,02,50,9.10
2010,08,20,02,51,9.10
2010,08,20,02,52,9.10
2010,08,20,02,53,9.20
2010,08,20,02,54,9.20
2010,08,20,02,55,9.20
2010,08,20,02,56,9.20
2010,08,20,02,57,9.20
2010,08,20,02,58,9.20
2010,08,20,02,59,9.30
2010,08,20,03,00,9.30
2010,08,20,03,01,9.40
2010,08,20,03,02,9.40
2010,08,20,03,03,9.50
2010,08,20,03,04,9.60
2010,08,20,03,05,9.60
2010,08,20,03,06,9.60
2010,08,20,03,07,9.70
2010,08,20,03,08,9.70
2010,08,20,03,09,9.70
2010,08,20,03,10,9.70
2010,08,20,03,11,9.70
2010,08,20,03,12,9.60
2010,08,20,03,13,9.60
2010,08,20,03,14,9.60
2010,08,20,03,15,9.60
2010,08,20,03,16,9.60
2010,08,20,03,17,9.70
2010,08,20,03,18,9.70
2010,08,20,03,19,9.80
2010,08,20,03,20,9.80
2010,08,20,03,21,9.80
2010,08,20,03,22,9.80
2010,08,20,03,23,9.70
2010,08,20,03,24,9.70
2010,08,20,03,25,9.70
2010,08,20,03,26,9.70
2010,08,20,03,27,9.70
2010,08,20,03,28,9.60
2010,08,20,03,29,9.60
2010,08,20,03,30,9.50
2010,08,20,03,31,9.50
2010,08,20,03,32,9.40
2010,08,20,03,33,9.40
2010,08,20,03,34,9.40
2010,08,20,03,35,9.30
2010,08,20,03,36,9.20
2010,08,20,03,37,9.20
2010,08,20,03,38,9.10
2010,08,20,03,39,9.00
2010,08,20,03,40,8.80
2010,08,20,03,41,8.80
2010,08,20,03,42,8.70
2010,08,20,03,43,8.60
2010,08,20,03,44,8.60
2010,08,20,03,45,8.50
2010,08,20,03,46,8.50
2010,08,20,03,47,8.40
2010,08,20,03,48,8.40
2010,08,20,03,49,8.40
2010,08,20,03,50,8.30
2010,08,20,03,51,8.30
2010,08,20,03,52,8.30
2010,08,20,03,53,8.30
2010,08,20,03,54,8.30
2010,08,20,03,55,8.20
2010,08,20,03,56,8.30
2010,08,20,03,57,8.30
2010,08,20,03,58,8.30
2010,08,20,03,59,8.30
2010,08,20,04,00,8.40
2010,08,20,04,01,8.40
2010,08,20,04,02,8.50
2010,08,20,04,03,8.50
2010,08,20,04,04,8.60
2010,08,20,04,05,8.70
2010,08,20,04,06,8.80
2010,08,20,04,07,8.90
2010,08,20,04,08,9.00
2010,08,20,04,09,9.10
2010,08,20,04,10,9.20
2010,08,20,04,11,9.30
2010,08,20,04,12,9.40
2010,08,20,04,13,9.40
2010,08,20,04,14,9.50
2010,08,20,04,15,9.60
2010,08,20,04,16,9.60
2010,08,20,04,17,9.70
2010,08,20,04,18,9.70
2010,08,20,04,19,9.80
2010,08,20,04,20,9.80
2010,08,20,04,21,9.80
2010,08,20,04,22,9.80
2010,08,20,04,23,9.80
2010,08,20,04,24,9.70
2010,08,20,04,25,9.70
2010,08,20,04,26,9.70
2010,08,20,04,27,9.70
2010,08,20,04,28,9.60
2010,08,20,04,29,9.60
2010,08,20,04,30,9.60
2010,08,20,04,31,9.60
2010,08,20,04,32,9.50
2010,08,20,04,33,9.50
2010,08,20,04,34,9.50
2010,08,20,04,35,9.40
2010,08,20,04,36,9.40
2010,08,20,04,37,9.40
2010,08,20,04,38,9.40
2010,08,20,04,39,9.40
2010,08,20,04,40,9.40
2010,08,20,04,41,9.40
2010,08,20,04,42,9.40
2010,08,20,04,43,9.40
2010,08,20,04,44,9.40
2010,08,20,04,45,9.40
2010,08,20,04,46,9.40
2010,08,20,04,47,9.40
2010,08,20,04,48,9.40
2010,08,20,04,49,9.40
2010,08,20,04,50,9.40
2010,08,20,04,51,9.40
2010,08,20,04,52,9.40
2010,08,20,04,53,9.40
2010,08,20,04,54,9.40
2010,08,20,04,55,9.50
2010,08,20,04,56,9.60
2010,08,20,04,57,9.60
2010,08,20,04,58,9.60
2010,08,20,04,59,9.60
2010,08,20,05,00,9.70
2010,08,20,05,01,9.70
2010,08,20,05,02,9.60
2010,08,20,05,03,9.60
2010,08,20,05,04,9.60
2010,08,20,05,05,9.60
2010,08,20,05,06,9.60
2010,08,20,05,07,9.50
2010,08,20,05,08,9.50
2010,08,20,05,09,9.50
2010,08,20,05,10,9.50
2010,08,20,05,11,9.50
2010,08,20,05,12,9.50
2010,08,20,05,13,9.60
2010,08,20,05,14,9.60
2010,08,20,05,15,9.60
2010,08,20,05,16,9.60
2010,08,20,05,17,9.60
2010,08,20,05,18,9.60
2010,08,20,05,19,9.60
2010,08,20,05,20,9.60
2010,08,20,05,21,9.60
2010,08,20,05,22,9.60
2010,08,20,05,23,9.60
2010,08,20,05,24,9.60
2010,08,20,05,25,9.70
2010,08,20,05,26,9.70
2010,08,20,05,27,9.80
2010,08,20,05,28,9.80
2010,08,20,05,29,9.80
2010,08,20,05,30,9.80
2010,08,20,05,31,9.90
2010,08,20,05,32,9.90
2010,08,20,05,33,9.90
2010,08,20,05,34,9.90
2010,08,20,05,35,9.90
2010,08,20,05,36,9.90
2010,08,20,05,37,9.80
2010,08,20,05,38,9.80
2010,08,20,05,39,9.80
2010,08,20,05,40,9.80
2010,08,20,05,41,9.70
2010,08,20,05,42,9.70
2010,08,20,05,43,9.70
2010,08,20,05,44,9.70
2010,08,20,05,45,9.70
2010,08,20,05,46,9.70
2010,08,20,05,47,9.70
2010,08,20,05,48,9.70
2010,08,20,05,49,9.70
2010,08,20,05,50,9.60
2010,08,20,05,51,9.60
2010,08,20,05,52,9.50
2010,08,20,05,53,9.40
2010,08,20,05,54,9.30
2010,08,20,05,55,9.30
2010,08,20,05,56,9.20
2010,08,20,05,57,9.20
2010,08,20,05,58,9.10
2010,08,20,05,59,9.00
2010,08,20,06,00,8.90
2010,08,20,06,01,8.90
2010,08,20,06,02,8.80
2010,08,20,06,03,8.70
2010,08,20,06,04,8.70
2010,08,20,06,05,8.60
2010,08,20,06,06,8.50
2010,08,20,06,07,8.50
2010,08,20,06,08,8.40
2010,08,20,06,09,8.40
2010,08,20,06,10,8.40
2010,08,20,06,11,8.40
2010,08,20,06,12,8.40
2010,08,20,06,13,8.40
2010,08,20,06,14,8.30
2010,08,20,06,15,8.30
2010,08,20,06,16,8.30
2010,08,20,06,17,8.20
2010,08,20,06,18,8.20
2010,08,20,06,19,8.20
2010,08,20,06,20,8.20
2010,08,20,06,21,8.20
2010,08,20,06,22,8.20
2010,08,20,06,23,8.20
2010,08,20,06,24,8.20
2010,08,20,06,25,8.20
2010,08,20,06,26,8.30
2010,08,20,06,27,8.30
2010,08,20,06,28,8.30
2010,08,20,06,29,8.30
2010,08,20,06,30,8.40
2010,08,20,06,31,8.40
2010,08,20,06,32,8.50
2010,08,20,06,33,8.50
2010,08,20,06,34,8.60
2010,08,20,06,35,8.60
2010,08,20,06,36,8.60
2010,08,20,06,37,8.70
2010,08,20,06,38,8.70
2010,08,20,06,39,8.80
2010,08,20,06,40,8.80
2010,08,20,06,41,8.80
2010,08,20,06,42,8.90
2010,08,20,06,43,8.90
2010,08,20,06,44,8.90
2010,08,20,06,45,8.90
2010,08,20,06,46,8.90
2010,08,20,06,47,8.90
2010,08,20,06,48,8.90
2010,08,20,06,49,9.00
2010,08,20,06,50,9.00
2010,08,20,06,51,9.00
2010,08,20,06,52,9.00
2010,08,20,06,53,9.10
2010,08,20,06,54,9.10
2010,08,20,06,55,9.10
2010,08,20,06,56,9.10
2010,08,20,06,57,9.20
2010,08,20,06,58,9.20
2010,08,20,06,59,9.20
2010,08,20,07,00,9.20
2010,08,20,07,01,9.20
2010,08,20,07,02,9.20
2010,08,20,07,03,9.30
2010,08,20,07,04,9.30
2010,08,20,07,05,9.30
2010,08,20,07,06,9.40
2010,08,20,07,07,9.40
2010,08,20,07,08,9.40
2010,08,20,07,09,9.50
2010,08,20,07,10,9.50
2010,08,20,07,11,9.50
2010,08,20,07,12,9.60
2010,08,20,07,13,9.60
2010,08,20,07,14,9.60
2010,08,20,07,15,9.70
2010,08,20,07,16,9.70
2010,08,20,07,17,9.80
2010,08,20,07,18,9.80
2010,08,20,07,19,9.80
2010,08,20,07,20,9.90
2010,08,20,07,21,9.90
2010,08,20,07,22,9.90
2010,08,20,07,23,10.00
2010,08,20,07,24,10.00
2010,08,20,07,25,10.10
2010,08,20,07,26,10.10
2010,08,20,07,27,10.20
2010,08,20,07,28,10.30
2010,08,20,07,29,10.30
2010,08,20,07,30,10.40
2010,08,20,07,31,10.40
2010,08,20,07,32,10.50
2010,08,20,07,33,10.50
2010,08,20,07,34,10.60
2010,08,20,07,35,10.70
2010,08,20,07,36,10.70
2010,08,20,07,37,10.80
2010,08,20,07,38,10.80
2010,08,20,07,39,10.90
2010,08,20,07,40,10.90
2010,08,20,07,41,11.00
2010,08,20,07,42,11.10
2010,08,20,07,43,11.10
2010,08,20,07,44,11.20
2010,08,20,07,45,11.20
2010,08,20,07,46,11.30
2010,08,20,07,47,11.30
2010,08,20,07,48,11.40
2010,08,20,07,49,11.40
2010,08,20,07,50,11.40
2010,08,20,07,51,11.50
2010,08,20,07,52,11.50
2010,08,20,07,53,11.60
2010,08,20,07,54,11.60
2010,08,20,07,55,11.60
2010,08,20,07,56,11.60
2010,08,20,07,57,11.70
2010,08,20,07,58,11.70
2010,08,20,07,59,11.70
2010,08,20,08,00,11.70
2010,08,20,08,01,11.70
2010,08,20,08,02,11.70
2010,08,20,08,03,11.70
2010,08,20,08,04,11.70
2010,08,20,08,05,11.80
2010,08,20,08,06,11.80
2010,08,20,08,07,11.80
2010,08,20,08,08,11.80
2010,08,20,08,09,11.90
2010,08,20,08,10,11.90
2010,08,20,08,11,12.00
2010,08,20,08,12,12.00
2010,08,20,08,13,12.10
2010,08,20,08,14,12.20
2010,08,20,08,15,12.20
2010,08,20,08,16,12.30
2010,08,20,08,17,12.50
2010,08,20,08,18,12.50
2010,08,20,08,19,12.60
2010,08,20,08,20,12.70
2010,08,20,08,21,12.80
2010,08,20,08,22,12.90
2010,08,20,08,23,12.90
2010,08,20,08,24,13.00
2010,08,20,08,25,13.00
2010,08,20,08,26,13.00
2010,08,20,08,27,13.10
2010,08,20,08,28,13.10
2010,08,20,08,29,13.10
2010,08,20,08,30,13.10
2010,08,20,08,31,13.20
2010,08,20,08,32,13.30
2010,08,20,08,33,13.30
2010,08,20,08,34,13.40
2010,08,20,08,35,13.50
2010,08,20,08,36,13.50
2010,08,20,08,37,13.60
2010,08,20,08,38,13.60
2010,08,20,08,39,13.60
2010,08,20,08,40,13.70
2010,08,20,08,41,13.70
2010,08,20,08,42,13.70
2010,08,20,08,43,13.70
2010,08,20,08,44,13.70
2010,08,20,08,45,13.70
2010,08,20,08,46,13.80
2010,08,20,08,47,13.80
2010,08,20,08,48,13.80
2010,08,20,08,49,13.80
2010,08,20,08,50,13.80
2010,08,20,08,51,13.80
2010,08,20,08,52,13.80
2010,08,20,08,53,13.80
2010,08,20,08,54,13.80
2010,08,20,08,55,13.80
2010,08,20,08,56,13.80
2010,08,20,08,57,13.80
2010,08,20,08,58,13.80
2010,08,20,08,59,13.80
2010,08,20,09,00,13.80
2010,08,20,09,01,13.80
2010,08,20,09,02,13.80
2010,08,20,09,03,13.80
2010,08,20,09,04,13.80
2010,08,20,09,05,13.80
2010,08,20,09,06,13.80
2010,08,20,09,07,13.90
2010,08,20,09,08,13.90
2010,08,20,09,09,13.90
2010,08,20,09,10,13.90
2010,08,20,09,11,13.90
2010,08,20,09,12,13.90
2010,08,20,09,13,13.90
2010,08,20,09,14,13.80
2010,08,20,09,15,13.80
2010,08,20,09,16,13.80
2010,08,20,09,17,13.80
2010,08,20,09,18,13.90
2010,08,20,09,19,13.90
2010,08,20,09,20,14.00
2010,08,20,09,21,14.10
2010,08,20,09,22,14.10
2010,08,20,09,23,14.20
2010,08,20,09,24,14.30
2010,08,20,09,25,14.30
2010,08,20,09,26,14.40
2010,08,20,09,27,14.40
2010,08,20,09,28,14.50
2010,08,20,09,29,14.60
2010,08,20,09,30,14.60
2010,08,20,09,31,14.60
2010,08,20,09,32,14.60
2010,08,20,09,33,14.60
2010,08,20,09,34,14.60
2010,08,20,09,35,14.60
2010,08,20,09,36,14.60
2010,08,20,09,37,14.70
2010,08,20,09,38,14.80
2010,08,20,09,39,15.00
2010,08,20,09,40,15.00
2010,08,20,09,41,15.10
2010,08,20,09,42,15.30
2010,08,20,09,43,15.50
2010,08,20,09,44,15.60
2010,08,20,09,45,15.80
2010,08,20,09,46,15.90
2010,08,20,09,47,16.10
2010,08,20,09,48,16.20
2010,08,20,09,49,16.30
2010,08,20,09,50,16.30
2010,08,20,09,51,16.30
2010,08,20,09,52,16.40
2010,08,20,09,53,16.50
2010,08,20,09,54,16.50
2010,08,20,09,55,16.50
2010,08,20,09,56,16.50
2010,08,20,09,57,16.40
2010,08,20,09,58,16.40
2010,08,20,09,59,16.50
2010,08,20,10,00,16.50
2010,08,20,10,01,16.50
2010,08,20,10,02,16.60
2010,08,20,10,03,16.60
2010,08,20,10,04,16.70
2010,08,20,10,05,16.70
2010,08,20,10,06,16.80
2010,08,20,10,07,16.90
2010,08,20,10,08,17.00
2010,08,20,10,09,17.10
2010,08,20,10,10,17.10
2010,08,20,10,11,17.10
2010,08,20,10,12,17.10
2010,08,20,10,13,17.10
2010,08,20,10,14,17.00
2010,08,20,10,15,17.00
2010,08,20,10,16,17.10
2010,08,20,10,17,17.00
2010,08,20,10,18,16.90
2010,08,20,10,19,16.90
2010,08,20,10,20,16.90
2010,08,20,10,21,16.80
2010,08,20,10,22,16.70
2010,08,20,10,23,16.50
2010,08,20,10,24,16.30
2010,08,20,10,25,16.30
2010,08,20,10,26,16.20
2010,08,20,10,27,16.20
2010,08,20,10,28,16.10
2010,08,20,10,29,16.10
2010,08,20,10,30,16.10
2010,08,20,10,31,16.10
2010,08,20,10,32,16.10
2010,08,20,10,33,16.10
2010,08,20,10,34,16.00
2010,08,20,10,35,16.00
2010,08,20,10,36,15.90
2010,08,20,10,37,15.90
2010,08,20,10,38,15.80
2010,08,20,10,39,15.80
2010,08,20,10,40,15.80
2010,08,20,10,41,15.80
2010,08,20,10,42,15.70
2010,08,20,10,43,15.70
2010,08,20,10,44,15.60
2010,08,20,10,45,15.60
2010,08,20,10,46,15.60
2010,08,20,10,47,15.60
2010,08,20,10,48,15.70
2010,08,20,10,49,15.80
2010,08,20,10,50,16.00
2010,08,20,10,51,16.10
2010,08,20,10,52,16.20
2010,08,20,10,53,16.20
2010,08,20,10,54,16.20
2010,08,20,10,55,16.20
2010,08,20,10,56,16.20
2010,08,20,10,57,16.20
2010,08,20,10,58,16.20
2010,08,20,10,59,16.20
2010,08,20,11,00,16.30
2010,08,20,11,01,16.30
2010,08,20,11,02,16.40
2010,08,20,11,03,16.40
2010,08,20,11,04,16.40
2010,08,20,11,05,16.40
2010,08,20,11,06,16.40
2010,08,20,11,07,16.50
2010,08,20,11,08,16.50
2010,08,20,11,09,16.60
2010,08,20,11,10,16.60
2010,08,20,11,11,16.70
2010,08,20,11,12,16.70
2010,08,20,11,13,16.60
2010,08,20,11,14,16.60
2010,08,20,11,15,16.60
2010,08,20,11,16,16.70
2010,08,20,11,17,16.80
2010,08,20,11,18,16.80
2010,08,20,11,19,16.90
2010,08,20,11,20,16.80
2010,08,20,11,21,16.70
2010,08,20,11,22,16.60
2010,08,20,11,23,16.50
2010,08,20,11,24,16.40
2010,08,20,11,25,16.40
2010,08,20,11,26,16.40
2010,08,20,11,27,16.40
2010,08,20,11,28,16.40
2010,08,20,11,29,16.30
2010,08,20,11,30,16.30
2010,08,20,11,31,16.30
2010,08,20,11,32,16.30
2010,08,20,11,33,16.30
2010,08,20,11,34,16.30
2010,08,20,11,35,16.30
2010,08,20,11,36,16.30
2010,08,20,11,37,16.30
2010,08,20,11,38,16.30
2010,08,20,11,39,16.40
2010,08,20,11,40,16.50
2010,08,20,11,41,16.70
2010,08,20,11,42,16.80
2010,08,20,11,43,17.00
2010,08,20,11,44,17.20
2010,08,20,11,45,17.30
2010,08,20,11,46,17.40
2010,08,20,11,47,17.50
2010,08,20,11,48,17.60
2010,08,20,11,49,17.60
2010,08,20,11,50,17.60
2010,08,20,11,51,17.60
2010,08,20,11,52,17.60
2010,08,20,11,53,17.50
2010,08,20,11,54,17.30
2010,08,20,11,55,17.20
2010,08,20,11,56,17.10
2010,08,20,11,57,17.10
2010,08,20,11,58,17.00
2010,08,20,11,59,16.90
2010,08,20,12,00,16.80
2010,08,20,12,01,16.80
2010,08,20,12,02,16.90
2010,08,20,12,03,16.90
2010,08,20,12,04,16.80
2010,08,20,12,05,16.80
2010,08,20,12,06,16.80
2010,08,20,12,07,16.80
2010,08,20,12,08,16.70
2010,08,20,12,09,16.70
2010,08,20,12,10,16.70
2010,08,20,12,11,16.60
2010,08,20,12,12,16.60
2010,08,20,12,13,16.60
2010,08,20,12,14,16.60
2010,08,20,12,15,16.60
2010,08,20,12,16,16.50
2010,08,20,12,17,16.40
2010,08,20,12,18,16.40
2010,08,20,12,19,16.30
2010,08,20,12,20,16.30
2010,08,20,12,21,16.30
2010,08,20,12,22,16.30
2010,08,20,12,23,16.30
2010,08,20,12,24,16.30
2010,08,20,12,25,16.30
2010,08,20,12,26,16.40
2010,08,20,12,27,16.40
2010,08,20,12,28,16.40
2010,08,20,12,29,16.50
2010,08,20,12,30,16.60
2010,08,20,12,31,16.70
2010,08,20,12,32,16.80
2010,08,20,12,33,16.90
2010,08,20,12,34,16.90
2010,08,20,12,35,17.00
2010,08,20,12,36,17.10
2010,08,20,12,37,17.10
2010,08,20,12,38,17.20
2010,08,20,12,39,17.30
2010,08,20,12,40,17.40
2010,08,20,12,41,17.60
2010,08,20,12,42,17.70
2010,08,20,12,43,17.70
2010,08,20,12,44,17.70
2010,08,20,12,45,17.70
2010,08,20,12,46,17.70
2010,08,20,12,47,17.70
2010,08,20,12,48,17.70
2010,08,20,12,49,17.70
2010,08,20,12,50,17.60
2010,08,20,12,51,17.50
2010,08,20,12,52,17.40
2010,08,20,12,53,17.40
2010,08,20,12,54,17.40
2010,08,20,12,55,17.60
2010,08,20,12,56,17.70
2010,08,20,12,57,17.70
2010,08,20,12,58,17.80
2010,08,20,12,59,17.90
2010,08,20,13,00,17.90
2010,08,20,13,01,18.00
2010,08,20,13,02,18.10
2010,08,20,13,03,18.20
2010,08,20,13,04,18.20
2010,08,20,13,05,18.10
2010,08,20,13,06,18.00
2010,08,20,13,07,18.00
2010,08,20,13,08,18.00
2010,08,20,13,09,17.90
2010,08,20,13,10,17.80
2010,08,20,13,11,17.80
2010,08,20,13,12,17.80
2010,08,20,13,13,17.90
2010,08,20,13,14,17.90
2010,08,20,13,15,18.00
2010,08,20,13,16,17.90
2010,08,20,13,17,17.90
2010,08,20,13,18,17.80
2010,08,20,13,19,17.70
2010,08,20,13,20,17.70
2010,08,20,13,21,17.70
2010,08,20,13,22,17.70
2010,08,20,13,23,17.80
2010,08,20,13,24,17.80
2010,08,20,13,25,17.80
2010,08,20,13,26,17.70
2010,08,20,13,27,17.80
2010,08,20,13,28,17.80
2010,08,20,13,29,17.70
2010,08,20,13,30,17.70
2010,08,20,13,31,17.60
2010,08,20,13,32,17.70
2010,08,20,13,33,17.80
2010,08,20,13,34,17.90
2010,08,20,13,35,18.00
2010,08,20,13,36,18.00
2010,08,20,13,37,18.00
2010,08,20,13,38,18.00
2010,08,20,13,39,17.90
2010,08,20,13,40,17.80
2010,08,20,13,41,17.80
2010,08,20,13,42,17.80
2010,08,20,13,43,17.80
2010,08,20,13,44,17.80
2010,08,20,13,45,17.80
2010,08,20,13,46,17.80
2010,08,20,13,47,17.90
2010,08,20,13,48,17.90
2010,08,20,13,49,17.90
2010,08,20,13,50,17.90
2010,08,20,13,51,17.90
2010,08,20,13,52,17.90
2010,08,20,13,53,17.90
2010,08,20,13,54,17.90
2010,08,20,13,55,17.90
2010,08,20,13,56,18.00
2010,08,20,13,57,18.00
2010,08,20,13,58,18.10
2010,08,20,13,59,18.10
2010,08,20,14,00,18.10
2010,08,20,14,01,18.10
2010,08,20,14,02,18.10
2010,08,20,14,03,18.00
2010,08,20,14,04,17.90
2010,08,20,14,05,17.90
2010,08,20,14,06,17.90
2010,08,20,14,07,17.90
2010,08,20,14,08,17.90
2010,08,20,14,09,17.90
2010,08,20,14,10,18.00
2010,08,20,14,11,18.10
2010,08,20,14,12,18.20
2010,08,20,14,13,18.40
2010,08,20,14,14,18.40
2010,08,20,14,15,18.40
2010,08,20,14,16,18.40
2010,08,20,14,17,18.30
2010,08,20,14,18,18.30
2010,08,20,14,19,18.30
2010,08,20,14,20,18.40
2010,08,20,14,21,18.50
2010,08,20,14,22,18.50
2010,08,20,14,23,18.50
2010,08,20,14,24,18.50
2010,08,20,14,25,18.40
2010,08,20,14,26,18.30
2010,08,20,14,27,18.30
2010,08,20,14,28,18.20
2010,08,20,14,29,18.30
2010,08,20,14,30,18.30
2010,08,20,14,31,18.30
2010,08,20,14,32,18.30
2010,08,20,14,33,18.30
2010,08,20,14,34,18.40
2010,08,20,14,35,18.50
2010,08,20,14,36,18.40
2010,08,20,14,37,18.30
2010,08,20,14,38,18.30
2010,08,20,14,39,18.30
2010,08,20,14,40,18.30
2010,08,20,14,41,18.30
2010,08,20,14,42,18.30
2010,08,20,14,43,18.30
2010,08,20,14,44,18.30
2010,08,20,14,45,18.20
2010,08,20,14,46,18.20
2010,08,20,14,47,18.20
2010,08,20,14,48,18.20
2010,08,20,14,49,18.30
2010,08,20,14,50,18.40
2010,08,20,14,51,18.50
2010,08,20,14,52,18.60
2010,08,20,14,53,18.60
2010,08,20,14,54,18.60
2010,08,20,14,55,18.60
2010,08,20,14,56,18.60
2010,08,20,14,57,18.60
2010,08,20,14,58,18.40
2010,08,20,14,59,18.30
2010,08,20,15,00,18.30
2010,08,20,15,01,18.20
2010,08,20,15,02,18.20
2010,08,20,15,03,18.20
2010,08,20,15,04,18.30
2010,08,20,15,05,18.50
2010,08,20,15,06,18.60
2010,08,20,15,07,18.60
2010,08,20,15,08,18.70
2010,08,20,15,09,18.70
2010,08,20,15,10,18.70
2010,08,20,15,11,18.70
2010,08,20,15,12,18.70
2010,08,20,15,13,18.70
2010,08,20,15,14,18.60
2010,08,20,15,15,18.60
2010,08,20,15,16,18.50
2010,08,20,15,17,18.50
2010,08,20,15,18,18.50
2010,08,20,15,19,18.50
2010,08,20,15,20,18.60
2010,08,20,15,21,18.60
2010,08,20,15,22,18.70
2010,08,20,15,23,18.70
2010,08,20,15,24,18.60
2010,08,20,15,25,18.60
2010,08,20,15,26,18.60
2010,08,20,15,27,18.60
2010,08,20,15,28,18.60
2010,08,20,15,29,18.60
2010,08,20,15,30,18.50
2010,08,20,15,31,18.50
2010,08,20,15,32,18.50
2010,08,20,15,33,18.50
2010,08,20,15,34,18.40
2010,08,20,15,35,18.30
2010,08,20,15,36,18.20
2010,08,20,15,37,18.10
2010,08,20,15,38,18.10
2010,08,20,15,39,18.10
2010,08,20,15,40,18.10
2010,08,20,15,41,18.10
2010,08,20,15,42,18.10
2010,08,20,15,43,18.10
2010,08,20,15,44,18.10
2010,08,20,15,45,18.10
2010,08,20,15,46,18.00
2010,08,20,15,47,17.90
2010,08,20,15,48,17.90
2010,08,20,15,49,17.80
2010,08,20,15,50,17.80
2010,08,20,15,51,17.80
2010,08,20,15,52,17.90
2010,08,20,15,53,17.90
2010,08,20,15,54,18.00
2010,08,20,15,55,18.10
2010,08,20,15,56,18.10
2010,08,20,15,57,18.10
2010,08,20,15,58,18.10
2010,08,20,15,59,18.10
2010,08,20,16,00,18.10
2010,08,20,16,01,18.10
2010,08,20,16,02,18.20
2010,08,20,16,03,18.20
2010,08,20,16,04,18.20
2010,08,20,16,05,18.20
2010,08,20,16,06,18.10
2010,08,20,16,07,18.20
2010,08,20,16,08,18.30
2010,08,20,16,09,18.40
2010,08,20,16,10,18.40
2010,08,20,16,11,18.50
2010,08,20,16,12,18.40
2010,08,20,16,13,18.50
2010,08,20,16,14,18.50
2010,08,20,16,15,18.40
2010,08,20,16,16,18.30
2010,08,20,16,17,18.30
2010,08,20,16,18,18.20
2010,08,20,16,19,18.20
2010,08,20,16,20,18.30
2010,08,20,16,21,18.20
2010,08,20,16,22,18.30
2010,08,20,16,23,18.20
2010,08,20,16,24,18.20
2010,08,20,16,25,18.10
2010,08,20,16,26,18.00
2010,08,20,16,27,18.00
2010,08,20,16,28,17.90
2010,08,20,16,29,17.90
2010,08,20,16,30,17.90
2010,08,20,16,31,17.90
2010,08,20,16,32,17.90
2010,08,20,16,33,18.00
2010,08,20,16,34,18.10
2010,08,20,16,35,18.20
2010,08,20,16,36,18.20
2010,08,20,16,37,18.30
2010,08,20,16,38,18.30
2010,08,20,16,39,18.30
2010,08,20,16,40,18.30
2010,08,20,16,41,18.30
2010,08,20,16,42,18.30
2010,08,20,16,43,18.40
2010,08,20,16,44,18.50
2010,08,20,16,45,18.60
2010,08,20,16,46,18.60
2010,08,20,16,47,18.60
2010,08,20,16,48,18.60
2010,08,20,16,49,18.50
2010,08,20,16,50,18.40
2010,08,20,16,51,18.30
2010,08,20,16,52,18.20
2010,08,20,16,53,18.20
2010,08,20,16,54,18.10
2010,08,20,16,55,18.10
2010,08,20,16,56,18.10
2010,08,20,16,57,18.00
2010,08,20,16,58,17.90
2010,08,20,16,59,17.90
2010,08,20,17,00,18.00
2010,08,20,17,01,18.10
2010,08,20,17,02,18.20
2010,08,20,17,03,18.20
2010,08,20,17,04,18.20
2010,08,20,17,05,18.20
2010,08,20,17,06,18.20
2010,08,20,17,07,18.20
2010,08,20,17,08,18.10
2010,08,20,17,09,18.20
2010,08,20,17,10,18.20
2010,08,20,17,11,18.20
2010,08,20,17,12,18.30
2010,08,20,17,13,18.30
2010,08,20,17,14,18.40
2010,08,20,17,15,18.50
2010,08,20,17,16,18.50
2010,08,20,17,17,18.60
2010,08,20,17,18,18.60
2010,08,20,17,19,18.60
2010,08,20,17,20,18.60
2010,08,20,17,21,18.60
2010,08,20,17,22,18.60
2010,08,20,17,23,18.50
2010,08,20,17,24,18.50
2010,08,20,17,25,18.50
2010,08,20,17,26,18.50
2010,08,20,17,27,18.40
2010,08,20,17,28,18.40
2010,08,20,17,29,18.40
2010,08,20,17,30,18.30
2010,08,20,17,31,18.30
2010,08,20,17,32,18.30
2010,08,20,17,33,18.20